sat.trackr.live / text

‹ back to catalog

TIANPING 2A

NORAD 52153 · 2022-032A

PAYLOAD ACTIVE UNKNOWN

§ Identity

Operator
Country
PRC
Launch date
2022-03-30
Launch site
JSC
Launch vehicle
Mass (kg)
RCS (m²)

External: N2YO · Heavens-Above · Gunter

§ Orbital elements

Epoch: 2026-09-20T21:50:49.730784Z

Period
96.17 min
Inclination
97.5787°
Eccentricity
0.0009476
Mean motion
14.97410960 rev/d
Perigee alt
568.3 km
Apogee alt
581.5 km
Semi-major
6,953.0 km
B*
6.7274e-5
RAAN
298.8052°
Arg perigee
209.0921°
Mean anomaly
150.9774°
Rev number
24,416

§ Raw data

TIANPING 2A1 52153U 22032A   26263.91029781  .00000726  00000+0  67274-4 0  99952 52153  97.5787 298.8052 0009476 209.0921 150.9774 14.97410960244165

JSON: /api/v1/satellites/52153 · /tle

For live sub-satellite position, see the globe view (requires WebGL).

§ Visibility from observer

Set your observer location to see the next 7 days of passes ≥ 10°. The values pass through the URL so the page stays shareable.

No JS? Fill the form by hand. The geolocation button needs JavaScript.